Topeka Forbes, KS

2:51 AM CST on December 09, 2019 (GMT -0600)
Forbes

Weather History for KFOE - November, 2019

Change the Weather History Date:

Tuesday, November 12, 2019

  Actual Average Record
Temperature  
Mean Temperature 16 °F -  
Max Temperature 28 °F 53 °F 77 °F (2005)
Min Temperature 3 °F 32 °F 9 °F (1986)
Degree Days  
Heating Degree Days 50    
Moisture  
Dew Point 6 °F    
Average Humidity 62    
Maximum Humidity 80    
Minimum Humidity 41    
Precipitation  
Precipitation 0.00 in - - ()
Sea Level Pressure  
Sea Level Pressure 30.55 in    
Wind  
Wind Speed 6 mph ()    
Max Wind Speed 15 mph    
Max Gust Speed 26 mph    
Visibility 10.0 miles    
Events      
Averages and records for this station are not official NWS values.
T = Trace of Precipitation, MM = Missing Value Source: Averaged Metar Reports

Daily Weather History Graph

Daily Weather History Graph

Search for Another Location

Airport or City:

Astronomy

Nov. 12, 2019 Rise Set
Actual Time 7:01 AM CST 5:11 PM CST
Civil Twilight 6:33 AM CST 5:39 PM CST
Nautical Twilight 6:01 AM CST 6:11 PM CST
Astronomical Twilight 5:30 AM CST 6:43 PM CST
Moon 5:38 PM CST (11/12) 6:54 AM CST (11/12)
Length of Visible Light 11h 05m
Length of Day
10h 09m
Full, 100% of the Moon is Illuminated
Nov 12
Full
Nov 19
Last Quarter
Nov 26
New
Dec 4
First Quarter
Dec 11
Full

Hourly Weather History & Observations

Time (CST) Temp. Windchill Dew Point Humidity Pressure Visibility Wind Dir Wind Speed Gust Speed Precip Events Conditions
12:53 AM 10.9 °F 0.2 °F 3.9 °F 73% 30.75 in 10.0 mi NNW 6.9 mph - N/A   Clear
1:53 AM 9.0 °F 0.6 °F 3.0 °F 77% 30.74 in 10.0 mi NNW 4.6 mph - N/A   Clear
2:53 AM 8.1 °F -0.5 °F 1.9 °F 76% 30.73 in 10.0 mi NNW 4.6 mph - N/A   Clear
3:53 AM 6.1 °F -5.6 °F -0.0 °F 76% 30.73 in 10.0 mi NW 6.9 mph - N/A   Clear
4:53 AM 7.0 °F -3.3 °F 1.0 °F 77% 30.72 in 10.0 mi NNW 5.8 mph - N/A   Clear
5:53 AM 5.0 °F -4.1 °F -0.0 °F 80% 30.72 in 10.0 mi NW 4.6 mph - N/A   Clear
6:53 AM 3.9 °F -6.9 °F -2.0 °F 76% 30.73 in 10.0 mi NW 5.8 mph - N/A   Clear
7:53 AM 9.0 °F - 3.9 °F 80% 30.72 in 10.0 mi Calm Calm - N/A   Clear
8:53 AM 12.9 °F - 5.0 °F 71% 30.70 in 10.0 mi Calm Calm - N/A   Clear
9:53 AM 16.0 °F - 6.1 °F 65% 30.69 in 10.0 mi Calm Calm - N/A   Clear
10:53 AM 19.0 °F 13.9 °F 5.0 °F 54% 30.66 in 10.0 mi Variable 3.5 mph - N/A   Clear
11:53 AM 21.9 °F 14.5 °F 8.1 °F 55% 30.62 in 10.0 mi South 5.8 mph - N/A   Clear
12:53 PM 24.1 °F 14.4 °F 9.0 °F 53% 30.56 in 10.0 mi South 9.2 mph - N/A   Clear
1:53 PM 28.0 °F 18.1 °F 10.0 °F 47% 30.50 in 10.0 mi SSW 11.5 mph - N/A   Clear
2:53 PM 28.0 °F 17.5 °F 9.0 °F 45% 30.47 in 10.0 mi SSE 12.7 mph - N/A   Clear
3:53 PM 28.9 °F 18.2 °F 8.1 °F 41% 30.44 in 10.0 mi South 13.8 mph - N/A   Clear
4:53 PM 27.0 °F 16.1 °F 10.0 °F 49% 30.41 in 10.0 mi South 12.7 mph - N/A   Clear
5:53 PM 24.1 °F 13.1 °F 10.0 °F 55% 30.39 in 10.0 mi SSE 11.5 mph - N/A   Clear
6:53 PM 23.0 °F 11.1 °F 10.0 °F 58% 30.36 in 10.0 mi SSE 12.7 mph - N/A   Clear
7:53 PM 23.0 °F 10.6 °F 9.0 °F 55% 30.33 in 10.0 mi South 13.8 mph - N/A   Clear
8:53 PM 23.0 °F 10.1 °F 10.0 °F 58% 30.31 in 10.0 mi South 15.0 mph - N/A   Clear
10:53 PM 23.0 °F 10.6 °F 10.0 °F 58% 30.24 in 10.0 mi South 13.8 mph - N/A   Clear
11:53 PM 24.1 °F 11.5 °F 10.9 °F 57% 30.19 in 10.0 mi South 15.0 mph 26.5 mph N/A   Clear